Weather in Glubokiy

Russia / Rostov Oblast     48°31′31″N   40°19′54″E
temp.,
°C
wind,
m/s
gust,
m/s
humid.,
%
clouds,
%
prec.,
mm/h
press.,
hPa
HPBL,
m
23 october, sat
sat2300:00+12sw41076100 0.0 1016254
03:00+11sw367942 0.0 1016102
06:00+10sw348711 0.0 101653
09:00+13sw356875 0.0 1016225
12:00+19sw564499 0.0 1016758
15:00+17wnw4650100 0.0 1016648
18:00+13nw5870100 0.0 1016448
21:00+11wnw4787100 0.9 1018323
24 october, sun
sun2400:00+11wsw388692 0.7 1018389
03:00+9nw3779100 0.7 1018176
06:00+6nnw3368100 0.0 101955
09:00+8nw4655100 0.0 1020360
12:00+11nw5641100 0.0 10201189
15:00+10nw4546100 0.0 10191213
18:00+8wnw3653100 0.0 1020174
21:00+7w3856100 0.0 1020209
25 october, mon
mon2500:00+5nw510635 0.0 1020294
03:00+4nw6986100 0.0 1021719
06:00+3nw6107561 0.2 1023843
09:00+3nnw7107055 0.2 1025800
12:00+5nnw784987 0.0 10261528
15:00+6nnw784594 0.0 10281547
18:00+3nnw37565 0.0 1030177
21:00+1nnw35605 0.0 103190
26 october, tue
tue2600:000nnw34645 0.0 103364
03:00−1nnw33660 0.0 103350
06:00−2n33670 0.0 103440
09:00+2nne23520 0.0 1035259
12:00+6nne22350 0.0 1034836
15:00+7nne11290 0.0 1033891
18:00+4n00375 0.0 103310
21:00+3sse11415 0.0 103210
27 october, wed
wed2700:00+2sse22460 0.0 103210
03:00+1sse22500 0.0 103211
06:000sse22520 0.0 103113
09:00+3sse34413 0.0 1031206
12:00+9sse342531 0.0 1029693
15:00+11sse34225 0.0 1026830
18:00+6se333159 0.0 102524
21:00+4sse333695 0.0 102519